Back to catalog

STARLINK-2571

AliveCommunicationsVLEO
NORAD 48401·PAYLOAD·🇺🇸 United States

Launched May 4, 2021 from Cape Canaveral Space Force Station

Loading…

Next Passes (next 24 hours)

TLE

FreshSource: CelesTrak SupGP

Epoch: Sep 14, 2026, 13:25 UTC

1 48401C 21038BA  26257.55951389  .00023987  00000+0  77170-3 0  2578
2 48401  53.1600 173.9346 0001330  96.8057 293.8315 15.31676274    13

Track STARLINK-2571 in real time with AllMySat

Download on the App Store